Regional Weather Roundup
Issued by NWS Upton, NY

Current Version | Previous Version | Text Only | Print | Product List | Glossary Off
Versions: 1 2 3 4 5 6 7 8 9 10 11 12 13 14 15 16 17 18 19 20 21 22 23 24 25 26 27 28 29 30 31 32 33 34 35 36 37 38 39 40 41 42 43 44 45 46 47 48 49 50
476 ASUS41 KOKX 261408 RWROKX REGIONAL WEATHER ROUNDUP NATIONAL WEATHER SERVICE NEW YORK NY 1000 AM EDT SUN MAR 26 2017 NOTE: "FAIR" INDICATES FEW OR NO CLOUDS BELOW 12,000 FEET WITH NO SIGNIFICANT WEATHER AND/OR OBSTRUCTIONS TO VISIBILITY. NYZ071-072-176-178-NJZ106-104-261500- NEW YORK CITY METRO AREA CITY SKY/WX TMP DP RH WIND PRES REMARKS Central Park CLOUDY 38 33 82 E6 30.48R WCI 33 Wall St Helipt CLOUDY 39 36 87 NE14 30.47S WCI 31 LaGuardia APRT CLOUDY 41 33 73 NE15 30.46R Kennedy INTL CLOUDY 40 35 83 NE12 30.47R WCI 33 Breezy Point N/A 39 N/A N/A E9 N/A WCI 33 Newark/Liberty CLOUDY 40 34 79 E10 30.46R WCI 33 Teterboro CLOUDY 39 31 72 NE15G22 30.46R WCI 31 $$ NYZ177-179-078>081-261500- LONG ISLAND NEW YORK CITY SKY/WX TMP DP RH WIND PRES REMARKS Jones Beach N/A 37 N/A N/A E17 N/A WCI 28 Matinecock PT NOT AVBL Farmingdale CLOUDY 38 35 89 E7 30.47R WCI 33 MacArthur/ISP CLOUDY 38 36 92 E7 30.47R WCI 33 Shirley CLOUDY 38 36 92 VRB6 30.48R WCI 33 Westhampton LGT RAIN 39 34 82 NE8 30.49R WCI 33 East Hampton CLOUDY 38 31 76 NE13G20 30.48R WCI 30 Montauk N/A 40 32 73 NE8 30.50R WCI 34 $$ NYZ052-065-067-261500- HUDSON VALLEY CITY SKY/WX TMP DP RH WIND PRES REMARKS White Plains PTSUNNY 37 30 75 E10G20 30.46R WCI 30 Newburgh CLOUDY 36 32 87 VRB7 30.47R WCI 30 Montgomery CLOUDY 35 30 82 NE9 30.47R WCI 28 Poughkeepsie CLOUDY 33 31 92 N6 30.49R WCI 28 Albany CLOUDY 31 21 66 NE5 30.49F WCI 26 $$ NJZ001-105-106-008-010-013-015-019>022-104-261500- NEW JERSEY CITY SKY/WX TMP DP RH WIND PRES REMARKS Newark/Liberty CLOUDY 40 34 79 E10 30.46R WCI 33 Teterboro CLOUDY 39 31 72 NE15G22 30.46R WCI 31 Caldwell CLOUDY 39 32 76 E12 30.46R WCI 32 Somerville CLOUDY 42 33 70 E8 30.43R Linden CLOUDY 40 32 74 E13 30.47R WCI 32 Sussex CLOUDY 35 31 85 NE10 30.44S WCI 27 Andover N/A 37 32 82 N5 30.43S WCI 33 Trenton CLOUDY 40 36 86 E12 30.42R WCI 33 Millville CLOUDY 45 41 86 E16 30.39R Atlantic City CLOUDY 44 37 76 E17G26 30.40R Wrightstown CLOUDY 41 36 84 E18G24 30.39S Toms River CLOUDY 41 38 89 E9 30.44R Belmar CLOUDY 40 35 83 NE15 30.44R WCI 32 $$ PAZ047>061-062-071-261500- EASTERN PENNSYLVANIA CITY SKY/WX TMP DP RH WIND PRES REMARKS Philadelphia CLOUDY 44 37 76 E13 30.41R Allentown CLOUDY 41 33 73 NE12 30.41R Scranton CLOUDY 38 32 79 CALM 30.37R $$ CTZ002-004>006-009-010-012-RIZ004-006-007-MAZ004-011-015-261500- SOUTHERN NEW ENGLAND IN CT CITY SKY/WX TMP DP RH WIND PRES REMARKS Bradley INTL PTSUNNY 34 27 75 N8 30.52R WCI 27 Hartford CLOUDY 34 28 79 N6 30.51S WCI 29 Danbury CLOUDY 35 28 75 E8 30.48R WCI 29 Wtrbury/Oxford LGT RAIN 32 27 80 E9G17 30.47R WCI 24 Bridgeport CLOUDY 38 30 73 NE10 30.49R WCI 31 Meriden MIX PCPN 35 28 75 N3 30.50R New Haven CLOUDY 37 30 75 NE8 30.49R WCI 31 Chester NOT AVBL Groton CLOUDY 40 25 55 NE10G21 30.50R WCI 33 Wilimantic CLOUDY 37 27 67 E10 30.51R WCI 30 IN RI CITY SKY/WX TMP DP RH WIND PRES REMARKS Providence PTSUNNY 40 27 59 NE13 30.52S WCI 32 Block Island CLOUDY 39 31 72 E12G21 30.49R WCI 32 Westerly CLOUDY 40 28 62 NE7 30.50R IN MA CITY SKY/WX TMP DP RH WIND PRES REMARKS Boston MOSUNNY 39 28 64 E15 30.55R WCI 31 Worcester MOSUNNY 32 20 61 E8 30.48S WCI 25 Westfield CLOUDY 33 27 78 N5 30.51S WCI 29 Provincetown SUNNY 41 26 55 E18 30.54R Nantucket MOSUNNY 44 33 65 NE20G30 30.49S $$ ANZ330-335-338-340-345-350-353-355-261500- COASTAL MARINE OBSERVATIONS STATION/POSITION TIME SKY/WX TEMP WIND PRES VSBY WAVE AIR SEA DIR/SP/G HT/PER (UTC) (F) (DEG/KT/KT) (MB) (MI) (FT/S) NY HARB ENTRANCE 1250 40 42 60/ 17/ 19 1030.6 4/ 6 20 S FIRE ISLAND 1350 40 40 80/ 17/ 21 1030.5 5/ 6 GREAT SOUTH BAY NOT AVBL 23 SSW MONTAUK P 1250 39 43 1031.3 4/ 5 15 E BARNEGAT LI 1330 43 N/A 6/ 6 HUDSON CANYON 1250 43 45 80/ 19/ 23 1028.7 6/ 6 KINGS POINT 1348 38 39 1031.6 EXECUTION ROCKS NOT AVBL CENTRAL LI SOUND 1330 38 80/ 14/ 17 N/A 2/ 3 EASTERN LI SOUND NOT AVBL ROBBINS REEF 1348 39 70/ 12/ 13 1031.7 $$ >>>>>>>>>>>>>>>>>>>>>>>>>>>> KEY <<<<<<<<<<<<<<<<<<<<<<<<<<< > < > SKY/WX - Sky Condition/Present Weather < > TMP - Temperature in Fahrenheit < > DP - Dew Point in Fahrenheit < > RH - Relative Humidity in Percent < > WIND - Direction (from) and Speed in MPH < > PRES - Mean Sea Level Pressure (inches of Hg) < > WCI - Wind Chill Index < > VSB - VISIBILITY IN MILES < > HX - HEAT INDEX < > TC - TEMPERATURE IN CELSIUS < > VRB - VARIABLE WIND DIRECTION < > < >>>>>>>>>>>>>>>>>>>>>>>>>>>> KEY <<<<<<<<<<<<<<<<<<<<<<<<<<<

USA.gov is the U.S. government's official web portal to all federal, state and local government web resources and services.